Capri, Italy

11:54 AM CET on December 13, 2017 (GMT +0100)
Capri

Weather History for LIQC - March, 2013

Change the Weather History Date:

Saturday, March 16, 2013

  Actual Average (LIRN) Record (LIRN)
Temperature  
Mean Temperature 48 °F -  
Max Temperature 58 °F 60 °F 69 °F (1999)
Min Temperature 39 °F 43 °F 33 °F (1997)
Degree Days  
Heating Degree Days 16    
Moisture  
Dew Point 32 °F    
Average Humidity 57    
Maximum Humidity 76    
Minimum Humidity 29    
Precipitation  
Precipitation 0.00 in - - ()
Sea Level Pressure  
Sea Level Pressure 30.03 in    
Wind  
Wind Speed 2 mph ()    
Max Wind Speed 5 mph    
Max Gust Speed -    
Visibility 8.4 miles    
Events      
Averages and records for this station are not official NWS values.
T = Trace of Precipitation, MM = Missing Value Source: Averaged Metar Reports

Daily Weather History Graph

Daily Weather History Graph

Search for Another Location

Airport or City:

Trip Planner

Search our weather history database for the weather conditions in past years. The results will help you decide how hot, cold, wet, or windy it might be!

Date:

Astronomy

Mar. 16, 2013 Rise Set
Actual Time 6:13 AM CET 6:11 PM CET
Civil Twilight 5:46 AM CET 6:38 PM CET
Nautical Twilight 5:14 AM CET 7:10 PM CET
Astronomical Twilight 4:42 AM CET 7:42 PM CET
Moon 8:29 AM CET (3/16) 11:05 PM CET (3/16)
Length of Visible Light 12h 52m
Length of Day
11h 57m
Waxing Crescent, 21% of the Moon is Illuminated
Mar 16
Waxing Crescent
Mar 19
First Quarter
Mar 27
Full
Apr 3
Last Quarter
Apr 10
New

Hourly Weather History & Observations

Time (CET) Temp. Windchill Dew Point Humidity Pressure Visibility Wind Dir Wind Speed Gust Speed Precip Events Conditions
1:00 AM 41 °F - 32 °F 62% 29.87 in 12 mi 1.2 mph - -   Scattered Clouds
1:55 AM 41.0 °F - 32.0 °F 70% 29.86 in - ENE 2.3 mph - N/A   Clear
2:55 AM 41.0 °F - 32.0 °F 70% 29.89 in - ENE 2.3 mph - N/A   Clear
4:00 AM 41 °F - 31 °F 56% 29.94 in 12 mi NNW 3.5 mph - -   Partly Cloudy
5:55 AM 41.0 °F 39.0 °F 30.2 °F 65% 29.92 in 6.2 mi North 3.5 mph - N/A   Partly Cloudy
6:55 AM 39.2 °F 37.0 °F 30.2 °F 70% 29.95 in 6.2 mi SE 3.5 mph - N/A   Scattered Clouds
7:00 AM 40 °F - 30 °F 56% 29.97 in 12 mi SE 3.5 mph - -   Partly Cloudy
7:55 AM 41.0 °F 39.0 °F 30.2 °F 65% 29.98 in 6.2 mi SSE 3.5 mph - N/A   Mostly Cloudy
8:55 AM 41.0 °F 39.0 °F 30.2 °F 65% 30.01 in 6.2 mi SE 3.5 mph - N/A   Overcast
9:55 AM 42.8 °F 41.1 °F 30.2 °F 61% 30.01 in 6.2 mi ENE 3.5 mph - N/A   Mostly Cloudy
11:55 AM 44.6 °F - 28.4 °F 53% 30.04 in 6.2 mi East 2.3 mph - N/A   Mostly Cloudy
12:55 PM 46.4 °F - 28.4 °F 50% 30.06 in 6.2 mi NE 2.3 mph - N/A   Mostly Cloudy
1:00 PM 47 °F - 29 °F 37% 30.08 in 12 mi NE 2.3 mph - -   Mostly Cloudy
1:55 PM 51.8 °F - 32.0 °F 47% 30.06 in 6.2 mi ENE 3.5 mph - N/A   Scattered Clouds
2:55 PM 55.4 °F - 32.0 °F 41% 30.06 in 6.2 mi ENE 2.3 mph - N/A   Partly Cloudy
3:55 PM 57.2 °F - 33.8 °F 41% 30.06 in - East 2.3 mph - N/A   Clear
4:00 PM 57 °F - 34 °F 29% 30.07 in 12 mi East 2.3 mph - -  
4:55 PM 57.2 °F - 33.8 °F 41% 30.06 in - East 4.6 mph - N/A   Clear
5:55 PM 51.8 °F - 32.0 °F 47% 30.09 in - East 3.5 mph - N/A   Clear
6:55 PM 48.2 °F - 33.8 °F 58% 30.09 in - Calm Calm - N/A   Clear
7:00 PM 47 °F - 34 °F 50% 30.11 in 12 mi Calm Calm - -  
7:55 PM 42.8 °F - 35.6 °F 76% 30.09 in - Calm Calm - N/A   Clear
8:55 PM 42.8 °F - 33.8 °F 70% 30.09 in - Calm Calm - N/A   Clear
9:55 PM 42.8 °F - 33.8 °F 70% 30.09 in - Calm Calm - N/A   Clear
10:00 PM 42 °F - 33 °F 62% 30.12 in 6 mi Calm Calm - -  
10:55 PM 41.0 °F - 32.0 °F 70% 30.09 in - Calm Calm - N/A   Clear
11:55 PM 41.0 °F - 32.0 °F 70% 30.09 in - Calm Calm - N/A   Clear